Time,TemperatureF,DewpointF,PressureIn,WindDirection,WindDirectionDegrees,WindSpeedMPH,WindSpeedGustMPH,Humidity,HourlyPrecipIn,Conditions,Clouds,dailyrainin,SoftwareType,DateUTC
2013-03-03 00:00:00,40.3,37.0,29.95,WSW,243,3.0,6.0,88,0.00,,,0.00,VWS V14.01,2013-03-03 06:00:00,
2013-03-03 00:05:00,40.3,37.0,29.95,WSW,243,3.0,5.0,88,0.00,,,0.00,VWS V14.01,2013-03-03 06:05:00,
2013-03-03 00:10:00,40.3,37.6,29.95,WSW,243,5.0,5.0,90,0.00,,,0.00,VWS V14.01,2013-03-03 06:10:00,
2013-03-03 00:15:00,40.2,37.2,29.95,WSW,244,5.0,5.0,89,0.00,,,0.00,VWS V14.01,2013-03-03 06:15:00,
2013-03-03 00:20:00,40.3,37.3,29.95,WSW,244,2.0,6.0,89,0.00,,,0.00,VWS V14.01,2013-03-03 06:20:00,
2013-03-03 00:25:00,40.6,36.8,29.95,WSW,247,3.0,6.0,86,0.00,,,0.00,VWS V14.01,2013-03-03 06:25:00,
2013-03-03 00:30:00,40.9,37.0,29.94,WSW,248,4.0,6.0,86,0.00,,,0.00,VWS V14.01,2013-03-03 06:30:00,
2013-03-03 00:35:00,40.9,36.8,29.94,WSW,248,2.0,5.0,85,0.00,,,0.00,VWS V14.01,2013-03-03 06:35:00,
2013-03-03 00:40:00,41.1,36.9,29.94,WSW,250,2.0,5.0,85,0.00,,,0.00,VWS V14.01,2013-03-03 06:40:00,
2013-03-03 00:45:00,41.2,36.7,29.94,WSW,250,2.0,5.0,84,0.00,,,0.00,VWS V14.01,2013-03-03 06:45:00,
2013-03-03 00:50:00,41.3,36.8,29.94,WSW,250,2.0,2.0,84,0.00,,,0.00,VWS V14.01,2013-03-03 06:50:00,
2013-03-03 00:55:00,41.2,37.0,29.94,WSW,250,2.0,3.0,85,0.00,,,0.00,VWS V14.01,2013-03-03 06:55:00,
2013-03-03 01:00:00,41.2,37.0,29.94,WSW,250,1.0,3.0,85,0.00,,,0.00,VWS V14.01,2013-03-03 07:00:00,
2013-03-03 01:05:00,40.9,36.8,29.94,WSW,250,1.0,2.0,85,0.00,,,0.00,VWS V14.01,2013-03-03 07:05:00,
2013-03-03 01:10:00,40.9,37.0,29.94,WSW,250,3.0,5.0,86,0.00,,,0.00,VWS V14.01,2013-03-03 07:10:00,
2013-03-03 01:15:00,40.8,37.2,29.93,WSW,250,0.0,5.0,87,0.00,,,0.00,VWS V14.01,2013-03-03 07:15:00,
2013-03-03 01:20:00,39.9,36.3,29.93,WSW,251,0.0,2.0,87,0.00,,,0.00,VWS V14.01,2013-03-03 07:20:00,
2013-03-03 01:25:00,39.8,36.5,29.93,WSW,251,0.0,2.0,88,0.00,,,0.00,VWS V14.01,2013-03-03 07:25:00,
2013-03-03 01:30:00,39.8,36.8,29.93,WSW,251,0.0,2.0,89,0.00,,,0.00,VWS V14.01,2013-03-03 07:30:00,
2013-03-03 01:35:00,39.8,36.8,29.93,WSW,251,0.0,0.0,89,0.00,,,0.00,VWS V14.01,2013-03-03 07:35:00,
2013-03-03 01:40:00,39.8,36.8,29.93,WSW,251,0.0,0.0,89,0.00,,,0.00,VWS V14.01,2013-03-03 07:40:00,
2013-03-03 01:45:00,39.8,36.8,29.92,WSW,251,0.0,0.0,89,0.00,,,0.00,VWS V14.01,2013-03-03 07:45:00,
2013-03-03 01:50:00,39.9,36.9,29.92,WSW,251,0.0,0.0,89,0.00,,,0.00,VWS V14.01,2013-03-03 07:50:00,
2013-03-03 01:55:00,39.9,36.6,29.92,WSW,251,0.0,0.0,88,0.00,,,0.00,VWS V14.01,2013-03-03 07:55:00,
2013-03-03 02:00:00,40.1,36.8,29.91,WSW,251,0.0,0.0,88,0.00,,,0.00,VWS V14.01,2013-03-03 08:00:00,
2013-03-03 02:05:00,40.1,36.8,29.91,WSW,251,0.0,0.0,88,0.00,,,0.00,VWS V14.01,2013-03-03 08:05:00,
2013-03-03 02:10:00,39.9,36.6,29.91,SW,224,11.0,11.0,88,0.00,,,0.00,VWS V14.01,2013-03-03 08:10:00,
2013-03-03 02:15:00,38.5,35.8,29.91,SSW,205,0.0,11.0,90,0.00,,,0.00,VWS V14.01,2013-03-03 08:15:00,
2013-03-03 02:20:00,38.0,36.4,29.91,SSW,205,0.0,0.0,94,0.00,,,0.00,VWS V14.01,2013-03-03 08:20:00,
2013-03-03 02:25:00,37.6,37.3,29.91,SSW,212,0.0,10.0,99,0.00,,,0.00,VWS V14.01,2013-03-03 08:25:00,
2013-03-03 02:30:00,37.3,37.3,29.91,SSW,212,0.0,10.0,100,0.00,,,0.00,VWS V14.01,2013-03-03 08:30:00,
2013-03-03 02:35:00,37.0,37.0,29.91,SSW,212,5.0,6.0,100,0.00,,,0.00,VWS V14.01,2013-03-03 08:35:00,
2013-03-03 02:40:00,36.9,36.9,29.91,SSW,212,5.0,6.0,100,0.00,,,0.00,VWS V14.01,2013-03-03 08:40:00,
2013-03-03 02:45:00,36.8,36.8,29.90,SSW,212,0.0,6.0,100,0.00,,,0.00,VWS V14.01,2013-03-03 08:45:00,
2013-03-03 02:50:00,37.2,37.2,29.90,SSW,212,2.0,5.0,100,0.00,,,0.00,VWS V14.01,2013-03-03 08:50:00,
2013-03-03 02:55:00,37.3,37.3,29.90,SSW,212,1.0,5.0,100,0.00,,,0.00,VWS V14.01,2013-03-03 08:55:00,
2013-03-03 03:00:00,37.3,37.3,29.89,SSW,213,0.0,6.0,100,0.00,,,0.00,VWS V14.01,2013-03-03 09:00:00,
2013-03-03 03:05:00,37.3,37.3,29.89,WSW,241,5.0,8.0,100,0.00,,,0.00,VWS V14.01,2013-03-03 09:05:00,
2013-03-03 03:10:00,37.3,37.3,29.89,WSW,244,5.0,8.0,100,0.00,,,0.00,VWS V14.01,2013-03-03 09:10:00,
2013-03-03 03:15:00,37.2,37.2,29.89,WSW,246,3.0,8.0,100,0.00,,,0.00,VWS V14.01,2013-03-03 09:15:00,
2013-03-03 03:20:00,37.0,37.0,29.89,WSW,246,3.0,5.0,100,0.00,,,0.00,VWS V14.01,2013-03-03 09:20:00,
2013-03-03 03:25:00,37.0,37.0,29.89,WSW,247,2.0,6.0,100,0.00,,,0.00,VWS V14.01,2013-03-03 09:25:00,
2013-03-03 03:30:00,37.0,37.0,29.88,WSW,248,2.0,6.0,100,0.00,,,0.00,VWS V14.01,2013-03-03 09:30:00,
2013-03-03 03:35:00,37.2,37.2,29.88,WSW,250,5.0,6.0,100,0.00,,,0.00,VWS V14.01,2013-03-03 09:35:00,
2013-03-03 03:40:00,37.2,37.2,29.88,WSW,253,5.0,7.0,100,0.00,,,0.00,VWS V14.01,2013-03-03 09:40:00,
2013-03-03 03:45:00,36.9,36.9,29.86,WSW,253,3.0,7.0,100,0.00,,,0.00,VWS V14.01,2013-03-03 09:45:00,
2013-03-03 03:50:00,37.0,37.0,29.86,WSW,254,5.0,5.0,100,0.00,,,0.00,VWS V14.01,2013-03-03 09:50:00,
2013-03-03 03:55:00,37.5,37.5,29.86,WSW,254,3.0,5.0,100,0.00,,,0.00,VWS V14.01,2013-03-03 09:55:00,
2013-03-03 04:00:00,38.0,37.0,29.84,WSW,254,2.0,6.0,96,0.00,,,0.00,VWS V14.01,2013-03-03 10:00:00,
2013-03-03 04:05:00,38.3,36.7,29.84,WSW,254,2.0,5.0,94,0.00,,,0.00,VWS V14.01,2013-03-03 10:05:00,
2013-03-03 04:10:00,38.3,37.0,29.84,WSW,254,1.0,5.0,95,0.00,,,0.00,VWS V14.01,2013-03-03 10:10:00,
2013-03-03 04:15:00,38.2,36.6,29.84,WSW,254,1.0,5.0,94,0.00,,,0.00,VWS V14.01,2013-03-03 10:15:00,
2013-03-03 04:20:00,37.9,37.1,29.84,WSW,254,2.0,2.0,97,0.00,,,0.00,VWS V14.01,2013-03-03 10:20:00,
2013-03-03 04:25:00,37.6,37.6,29.84,WSW,254,0.0,2.0,100,0.00,,,0.00,VWS V14.01,2013-03-03 10:25:00,
2013-03-03 04:30:00,37.5,37.5,29.84,WSW,254,0.0,2.0,100,0.00,,,0.00,VWS V14.01,2013-03-03 10:30:00,
2013-03-03 04:35:00,37.2,37.2,29.84,WSW,254,3.0,4.0,100,0.00,,,0.00,VWS V14.01,2013-03-03 10:35:00,
2013-03-03 04:40:00,36.9,36.9,29.84,WSW,254,2.0,5.0,100,0.00,,,0.00,VWS V14.01,2013-03-03 10:40:00,
2013-03-03 04:45:00,36.5,36.5,29.83,WSW,254,0.0,5.0,100,0.00,,,0.00,VWS V14.01,2013-03-03 10:45:00,
2013-03-03 04:50:00,36.2,36.2,29.83,WSW,254,0.0,3.0,100,0.00,,,0.00,VWS V14.01,2013-03-03 10:50:00,
2013-03-03 04:55:00,36.0,36.0,29.83,WSW,254,0.0,3.0,100,0.00,,,0.00,VWS V14.01,2013-03-03 10:55:00,
2013-03-03 05:00:00,35.9,35.9,29.83,WSW,254,0.0,3.0,100,0.00,,,0.00,VWS V14.01,2013-03-03 11:00:00,
2013-03-03 05:05:00,36.2,36.2,29.83,WSW,254,0.0,2.0,100,0.00,,,0.00,VWS V14.01,2013-03-03 11:05:00,
2013-03-03 05:10:00,36.2,36.2,29.83,WSW,254,0.0,2.0,100,0.00,,,0.00,VWS V14.01,2013-03-03 11:10:00,
2013-03-03 05:15:00,36.0,36.0,29.83,WSW,254,0.0,2.0,100,0.00,,,0.00,VWS V14.01,2013-03-03 11:15:00,
2013-03-03 05:20:00,35.8,35.8,29.83,WSW,254,0.0,1.0,100,0.00,,,0.00,VWS V14.01,2013-03-03 11:20:00,
2013-03-03 05:25:00,35.5,35.5,29.83,WSW,254,1.0,2.0,100,0.00,,,0.00,VWS V14.01,2013-03-03 11:25:00,
2013-03-03 05:30:00,35.3,35.3,29.83,WSW,254,1.0,2.0,100,0.00,,,0.00,VWS V14.01,2013-03-03 11:30:00,
2013-03-03 05:35:00,35.2,35.2,29.83,WSW,254,0.0,0.0,100,0.00,,,0.00,VWS V14.01,2013-03-03 11:35:00,
2013-03-03 05:40:00,34.9,34.9,29.83,WSW,254,0.0,0.0,100,0.00,,,0.00,VWS V14.01,2013-03-03 11:40:00,
2013-03-03 05:45:00,34.7,34.7,29.83,WSW,254,0.0,0.0,100,0.00,,,0.00,VWS V14.01,2013-03-03 11:45:00,
2013-03-03 05:50:00,34.6,34.6,29.83,WSW,254,0.0,0.0,100,0.00,,,0.00,VWS V14.01,2013-03-03 11:50:00,
2013-03-03 05:55:00,34.7,34.7,29.83,WSW,254,0.0,0.0,100,0.00,,,0.00,VWS V14.01,2013-03-03 11:55:00,
2013-03-03 06:00:00,34.7,34.7,29.83,WSW,254,0.0,0.0,100,0.00,,,0.00,VWS V14.01,2013-03-03 12:00:00,
2013-03-03 06:05:00,34.7,34.7,29.83,WSW,254,0.0,0.0,100,0.00,,,0.00,VWS V14.01,2013-03-03 12:05:00,
2013-03-03 06:10:00,34.6,34.6,29.83,WSW,254,3.0,5.0,100,0.00,,,0.00,VWS V14.01,2013-03-03 12:10:00,
2013-03-03 06:15:00,34.3,34.3,29.83,WSW,254,2.0,5.0,100,0.00,,,0.00,VWS V14.01,2013-03-03 12:15:00,
2013-03-03 06:20:00,34.0,34.0,29.83,WSW,254,0.0,2.0,100,0.00,,,0.00,VWS V14.01,2013-03-03 12:20:00,
2013-03-03 06:25:00,33.8,33.8,29.83,WSW,254,0.0,2.0,100,0.00,,,0.00,VWS V14.01,2013-03-03 12:25:00,
2013-03-03 06:30:00,34.0,34.0,29.83,WSW,254,5.0,5.0,100,0.00,,,0.00,VWS V14.01,2013-03-03 12:30:00,
2013-03-03 06:35:00,34.1,34.1,29.83,WSW,254,3.0,5.0,100,0.00,,,0.00,VWS V14.01,2013-03-03 12:35:00,
2013-03-03 06:40:00,34.0,34.0,29.83,WSW,254,0.0,5.0,100,0.00,,,0.00,VWS V14.01,2013-03-03 12:40:00,
2013-03-03 06:45:00,34.1,34.1,29.83,WSW,254,0.0,5.0,100,0.00,,,0.00,VWS V14.01,2013-03-03 12:45:00,
2013-03-03 06:50:00,34.6,34.6,29.83,WSW,254,0.0,0.0,100,0.00,,,0.00,VWS V14.01,2013-03-03 12:50:00,
2013-03-03 06:55:00,35.8,35.8,29.83,WSW,254,0.0,0.0,100,0.00,,,0.00,VWS V14.01,2013-03-03 12:55:00,
2013-03-03 07:00:00,36.9,36.1,29.81,WSW,254,0.0,0.0,97,0.00,,,0.00,VWS V14.01,2013-03-03 13:00:00,
2013-03-03 07:05:00,37.8,34.3,29.81,West,260,2.0,2.0,87,0.00,,,0.00,VWS V14.01,2013-03-03 13:05:00,
2013-03-03 07:10:00,38.5,33.8,29.81,West,260,0.0,2.0,83,0.00,,,0.00,VWS V14.01,2013-03-03 13:10:00,
2013-03-03 07:15:00,38.9,34.2,29.80,West,260,0.0,2.0,83,0.00,,,0.00,VWS V14.01,2013-03-03 13:15:00,
2013-03-03 07:20:00,38.0,33.3,29.80,West,260,0.0,2.0,83,0.00,,,0.00,VWS V14.01,2013-03-03 13:20:00,
2013-03-03 07:25:00,37.6,34.4,29.80,West,260,0.0,2.0,88,0.00,,,0.00,VWS V14.01,2013-03-03 13:25:00,
2013-03-03 07:30:00,38.0,33.3,29.80,West,260,0.0,2.0,83,0.00,,,0.00,VWS V14.01,2013-03-03 13:30:00,
2013-03-03 07:35:00,38.5,33.5,29.80,West,260,0.0,0.0,82,0.00,,,0.00,VWS V14.01,2013-03-03 13:35:00,
2013-03-03 07:40:00,38.6,33.6,29.80,West,260,0.0,0.0,82,0.00,,,0.00,VWS V14.01,2013-03-03 13:40:00,
2013-03-03 07:45:00,38.8,34.4,29.79,West,260,0.0,0.0,84,0.00,,,0.00,VWS V14.01,2013-03-03 13:45:00,
2013-03-03 07:50:00,38.2,33.8,29.79,West,260,0.0,0.0,84,0.00,,,0.00,VWS V14.01,2013-03-03 13:50:00,
2013-03-03 07:55:00,37.8,33.4,29.79,West,267,2.0,2.0,84,0.00,,,0.00,VWS V14.01,2013-03-03 13:55:00,
2013-03-03 08:00:00,37.0,34.3,29.79,West,280,0.0,3.0,90,0.00,,,0.00,VWS V14.01,2013-03-03 14:00:00,
2013-03-03 08:05:00,37.0,34.3,29.79,West,280,0.0,0.0,90,0.00,,,0.00,VWS V14.01,2013-03-03 14:05:00,
2013-03-03 08:10:00,36.5,34.4,29.79,West,280,2.0,2.0,92,0.00,,,0.00,VWS V14.01,2013-03-03 14:10:00,
2013-03-03 08:15:00,35.5,35.2,29.79,West,280,0.0,2.0,99,0.00,,,0.00,VWS V14.01,2013-03-03 14:15:00,
2013-03-03 08:20:00,35.0,35.0,29.79,West,280,0.0,2.0,100,0.00,,,0.00,VWS V14.01,2013-03-03 14:20:00,
2013-03-03 08:25:00,35.0,35.0,29.79,West,280,2.0,2.0,100,0.00,,,0.00,VWS V14.01,2013-03-03 14:25:00,
2013-03-03 08:30:00,35.3,35.3,29.79,West,280,0.0,3.0,100,0.00,,,0.00,VWS V14.01,2013-03-03 14:30:00,
2013-03-03 08:35:00,35.8,35.8,29.79,West,280,0.0,0.0,100,0.00,,,0.00,VWS V14.01,2013-03-03 14:35:00,
2013-03-03 08:41:00,36.5,34.7,29.79,West,280,1.0,2.0,93,0.00,,,0.00,VWS V14.01,2013-03-03 14:41:00,
2013-03-03 08:45:00,41.9,36.5,29.75,West,280,0.0,5.0,81,0.00,,,0.00,VWS V14.01,2013-03-03 14:45:00,
2013-03-03 08:46:00,36.9,35.1,29.77,West,280,0.0,2.0,93,0.00,,,0.00,VWS V14.01,2013-03-03 14:46:00,
2013-03-03 08:51:00,37.5,35.1,29.77,West,280,0.0,0.0,91,0.00,,,0.00,VWS V14.01,2013-03-03 14:51:00,
2013-03-03 08:56:00,37.9,35.8,29.77,West,280,0.0,0.0,92,0.00,,,0.00,VWS V14.01,2013-03-03 14:56:00,
2013-03-03 09:00:00,43.5,36.1,29.74,West,280,5.0,5.0,75,0.00,,,0.00,VWS V14.01,2013-03-03 15:00:00,
2013-03-03 09:01:00,38.5,35.8,29.76,West,280,0.0,0.0,90,0.00,,,0.00,VWS V14.01,2013-03-03 15:01:00,
2013-03-03 09:06:00,39.1,36.1,29.76,West,280,2.0,2.0,89,0.00,,,0.00,VWS V14.01,2013-03-03 15:06:00,
2013-03-03 09:11:00,39.5,35.7,29.76,West,280,1.0,2.0,86,0.00,,,0.00,VWS V14.01,2013-03-03 15:11:00,
2013-03-03 09:15:00,44.1,36.3,29.72,West,280,2.0,6.0,74,0.00,,,0.00,VWS V14.01,2013-03-03 15:15:00,
2013-03-03 09:16:00,40.1,36.0,29.76,West,280,1.0,2.0,85,0.00,,,0.00,VWS V14.01,2013-03-03 15:16:00,
2013-03-03 09:21:00,40.5,36.7,29.76,West,280,0.0,0.0,86,0.00,,,0.00,VWS V14.01,2013-03-03 15:21:00,
2013-03-03 09:26:00,40.8,36.3,29.76,West,280,0.0,0.0,84,0.00,,,0.00,VWS V14.01,2013-03-03 15:26:00,
2013-03-03 09:30:00,45.8,36.2,29.71,West,280,1.0,5.0,69,0.00,,,0.00,VWS V14.01,2013-03-03 15:30:00,
2013-03-03 09:31:00,40.8,36.0,29.75,West,280,3.0,4.0,83,0.00,,,0.00,VWS V14.01,2013-03-03 15:31:00,
2013-03-03 09:36:00,40.9,36.5,29.75,West,280,3.0,5.0,84,0.00,,,0.00,VWS V14.01,2013-03-03 15:36:00,
2013-03-03 09:41:00,41.3,36.8,29.75,West,280,2.0,5.0,84,0.00,,,0.00,VWS V14.01,2013-03-03 15:41:00,
2013-03-03 09:45:00,46.2,35.9,29.70,West,280,2.0,5.0,67,0.00,,,0.00,VWS V14.01,2013-03-03 15:45:00,
2013-03-03 09:46:00,41.9,36.5,29.75,West,280,2.0,5.0,81,0.00,,,0.00,VWS V14.01,2013-03-03 15:46:00,
2013-03-03 09:51:00,42.6,36.9,29.75,West,280,2.0,3.0,80,0.00,,,0.00,VWS V14.01,2013-03-03 15:51:00,
2013-03-03 09:56:00,43.2,36.5,29.75,West,280,3.0,5.0,77,0.00,,,0.00,VWS V14.01,2013-03-03 15:56:00,
2013-03-03 10:00:00,47.0,35.5,29.70,West,280,5.0,5.0,64,0.00,,,0.00,VWS V14.01,2013-03-03 16:00:00,
2013-03-03 10:01:00,43.5,36.1,29.74,West,280,3.0,5.0,75,0.00,,,0.00,VWS V14.01,2013-03-03 16:01:00,
2013-03-03 10:06:00,43.5,36.5,29.74,West,280,4.0,6.0,76,0.00,,,0.00,VWS V14.01,2013-03-03 16:06:00,
2013-03-03 10:11:00,43.8,36.4,29.74,West,280,2.0,6.0,75,0.00,,,0.00,VWS V14.01,2013-03-03 16:11:00,
2013-03-03 10:15:00,47.9,34.7,29.69,West,280,4.0,5.0,60,0.00,,,0.00,VWS V14.01,2013-03-03 16:15:00,
2013-03-03 10:16:00,44.1,36.7,29.72,West,280,2.0,6.0,75,0.00,,,0.00,VWS V14.01,2013-03-03 16:16:00,
2013-03-03 10:21:00,44.5,36.0,29.72,West,280,3.0,5.0,72,0.00,,,0.00,VWS V14.01,2013-03-03 16:21:00,
2013-03-03 10:26:00,45.1,36.3,29.72,West,280,1.0,5.0,71,0.00,,,0.00,VWS V14.01,2013-03-03 16:26:00,
2013-03-03 10:30:00,49.4,35.7,29.68,SW,234,2.0,6.0,59,0.00,,,0.00,VWS V14.01,2013-03-03 16:30:00,
2013-03-03 10:31:00,45.8,36.2,29.71,West,280,1.0,5.0,69,0.00,,,0.00,VWS V14.01,2013-03-03 16:31:00,
2013-03-03 10:36:00,46.2,35.9,29.71,West,280,2.0,3.0,67,0.00,,,0.00,VWS V14.01,2013-03-03 16:36:00,
2013-03-03 10:41:00,46.2,34.7,29.71,West,280,3.0,4.0,64,0.00,,,0.00,VWS V14.01,2013-03-03 16:41:00,
2013-03-03 10:45:00,49.1,35.4,29.68,SW,233,5.0,6.0,59,0.00,,,0.00,VWS V14.01,2013-03-03 16:45:00,
2013-03-03 10:46:00,46.2,35.5,29.70,West,280,1.0,5.0,66,0.00,,,0.00,VWS V14.01,2013-03-03 16:46:00,
2013-03-03 10:51:00,46.5,35.8,29.70,West,280,2.0,3.0,66,0.00,,,0.00,VWS V14.01,2013-03-03 16:51:00,
2013-03-03 10:56:00,46.7,34.8,29.70,West,280,4.0,5.0,63,0.00,,,0.00,VWS V14.01,2013-03-03 16:56:00,
2013-03-03 11:00:00,49.5,36.2,29.67,SW,233,2.0,5.0,60,0.00,,,0.00,VWS V14.01,2013-03-03 17:00:00,
2013-03-03 11:01:00,47.0,35.5,29.70,West,280,4.0,5.0,64,0.00,,,0.00,VWS V14.01,2013-03-03 17:01:00,
2013-03-03 11:06:00,47.1,34.8,29.70,West,280,3.0,5.0,62,0.00,,,0.00,VWS V14.01,2013-03-03 17:06:00,
2013-03-03 11:11:00,47.4,35.0,29.70,West,280,3.0,5.0,62,0.00,,,0.00,VWS V14.01,2013-03-03 17:11:00,
2013-03-03 11:15:00,48.3,36.3,29.66,SW,233,3.0,7.0,63,0.00,,,0.00,VWS V14.01,2013-03-03 17:15:00,
2013-03-03 11:16:00,47.9,34.7,29.69,West,280,4.0,5.0,60,0.00,,,0.00,VWS V14.01,2013-03-03 17:16:00,
2013-03-03 11:21:00,48.3,35.5,29.69,West,278,1.0,5.0,61,0.00,,,0.00,VWS V14.01,2013-03-03 17:21:00,
2013-03-03 11:26:00,48.8,36.0,29.69,West,278,2.0,5.0,61,0.00,,,0.00,VWS V14.01,2013-03-03 17:26:00,
2013-03-03 11:30:00,47.9,34.3,29.65,SW,220,5.0,7.0,59,0.00,,,0.00,VWS V14.01,2013-03-03 17:30:00,
2013-03-03 11:31:00,49.4,35.7,29.68,SW,234,2.0,6.0,59,0.00,,,0.00,VWS V14.01,2013-03-03 17:31:00,
2013-03-03 11:36:00,49.4,36.1,29.68,SW,233,2.0,6.0,60,0.00,,,0.00,VWS V14.01,2013-03-03 17:36:00,
2013-03-03 11:41:00,49.2,35.5,29.68,SW,233,4.0,6.0,59,0.00,,,0.00,VWS V14.01,2013-03-03 17:41:00,
2013-03-03 11:45:00,46.8,34.5,29.64,SW,220,3.0,7.0,62,0.00,,,0.00,VWS V14.01,2013-03-03 17:45:00,
2013-03-03 11:46:00,49.1,35.4,29.68,SW,233,5.0,6.0,59,0.00,,,0.00,VWS V14.01,2013-03-03 17:46:00,
2013-03-03 11:51:00,49.2,35.9,29.68,SW,233,4.0,5.0,60,0.00,,,0.00,VWS V14.01,2013-03-03 17:51:00,
2013-03-03 11:56:00,49.4,35.7,29.68,SW,233,5.0,5.0,59,0.00,,,0.00,VWS V14.01,2013-03-03 17:56:00,
2013-03-03 12:00:00,47.3,34.5,29.62,SW,219,5.0,6.0,61,0.00,,,0.00,VWS V14.01,2013-03-03 18:00:00,
2013-03-03 12:01:00,49.5,36.2,29.67,SW,233,2.0,5.0,60,0.00,,,0.00,VWS V14.01,2013-03-03 18:01:00,
2013-03-03 12:06:00,49.4,35.7,29.67,SW,233,5.0,7.0,59,0.00,,,0.00,VWS V14.01,2013-03-03 18:06:00,
2013-03-03 12:11:00,48.8,36.4,29.67,SW,233,6.0,7.0,62,0.00,,,0.00,VWS V14.01,2013-03-03 18:11:00,
2013-03-03 12:15:00,47.7,36.1,29.62,SW,219,3.0,7.0,64,0.00,,,0.00,VWS V14.01,2013-03-03 18:15:00,
2013-03-03 12:16:00,48.3,36.3,29.66,SW,233,3.0,7.0,63,0.00,,,0.00,VWS V14.01,2013-03-03 18:16:00,
2013-03-03 12:21:00,48.2,36.2,29.66,SW,233,3.0,5.0,63,0.00,,,0.00,VWS V14.01,2013-03-03 18:21:00,
2013-03-03 12:26:00,48.3,33.8,29.66,SW,220,6.0,7.0,57,0.00,,,0.00,VWS V14.01,2013-03-03 18:26:00,
2013-03-03 12:30:00,47.3,35.0,29.61,SW,219,2.0,5.0,62,0.00,,,0.00,VWS V14.01,2013-03-03 18:30:00,
2013-03-03 12:31:00,47.9,34.3,29.65,SW,220,5.0,7.0,59,0.00,,,0.00,VWS V14.01,2013-03-03 18:31:00,
2013-03-03 12:36:00,47.3,35.0,29.65,SW,220,6.0,7.0,62,0.00,,,0.00,VWS V14.01,2013-03-03 18:36:00,
2013-03-03 12:41:00,47.0,34.3,29.65,SW,220,6.0,7.0,61,0.00,,,0.00,VWS V14.01,2013-03-03 18:41:00,
2013-03-03 12:45:00,48.0,34.8,29.60,SW,219,2.0,3.0,60,0.00,,,0.00,VWS V14.01,2013-03-03 18:45:00,
2013-03-03 12:46:00,46.8,34.5,29.64,SW,220,4.0,7.0,62,0.00,,,0.00,VWS V14.01,2013-03-03 18:46:00,
2013-03-03 12:51:00,47.0,34.7,29.64,SW,220,4.0,6.0,62,0.00,,,0.00,VWS V14.01,2013-03-03 18:51:00,
2013-03-03 12:56:00,47.1,33.9,29.64,SW,220,5.0,6.0,60,0.00,,,0.00,VWS V14.01,2013-03-03 18:56:00,
2013-03-03 13:00:00,49.2,34.6,29.59,SW,217,5.0,7.0,57,0.00,,,0.00,VWS V14.01,2013-03-03 19:00:00,
2013-03-03 13:01:00,47.3,34.5,29.62,SW,219,5.0,6.0,61,0.00,,,0.00,VWS V14.01,2013-03-03 19:01:00,
2013-03-03 13:06:00,47.1,35.6,29.62,SW,219,6.0,7.0,64,0.00,,,0.00,VWS V14.01,2013-03-03 19:06:00,
2013-03-03 13:11:00,47.1,36.0,29.62,SW,219,5.0,7.0,65,0.00,,,0.00,VWS V14.01,2013-03-03 19:11:00,
2013-03-03 13:15:00,48.3,35.1,29.61,SSW,209,2.0,7.0,60,0.00,,,0.00,VWS V14.01,2013-03-03 19:15:00,
2013-03-03 13:16:00,47.7,36.1,29.62,SW,219,2.0,7.0,64,0.00,,,0.00,VWS V14.01,2013-03-03 19:16:00,
2013-03-03 13:21:00,48.0,34.8,29.62,SW,219,2.0,5.0,60,0.00,,,0.00,VWS V14.01,2013-03-03 19:21:00,
2013-03-03 13:26:00,47.9,35.9,29.62,SW,219,2.0,5.0,63,0.00,,,0.00,VWS V14.01,2013-03-03 19:26:00,
2013-03-03 13:30:00,47.3,34.1,29.60,SW,215,10.0,10.0,60,0.00,,,0.00,VWS V14.01,2013-03-03 19:30:00,
2013-03-03 13:31:00,47.3,35.0,29.61,SW,219,2.0,5.0,62,0.00,,,0.00,VWS V14.01,2013-03-03 19:31:00,
2013-03-03 13:36:00,47.4,35.0,29.61,SW,219,2.0,3.0,62,0.00,,,0.00,VWS V14.01,2013-03-03 19:36:00,
2013-03-03 13:41:00,47.9,35.1,29.61,SW,219,1.0,3.0,61,0.00,,,0.00,VWS V14.01,2013-03-03 19:41:00,
2013-03-03 13:45:00,47.1,35.6,29.59,SSW,192,5.0,10.0,64,0.00,,,0.00,VWS V14.01,2013-03-03 19:45:00,
2013-03-03 13:46:00,48.0,34.8,29.60,SW,219,2.0,3.0,60,0.00,,,0.00,VWS V14.01,2013-03-03 19:46:00,
2013-03-03 13:51:00,48.5,34.8,29.60,SW,219,2.0,3.0,59,0.00,,,0.00,VWS V14.01,2013-03-03 19:51:00,
2013-03-03 13:56:00,48.9,34.3,29.60,SW,219,4.0,5.0,57,0.00,,,0.00,VWS V14.01,2013-03-03 19:56:00,
2013-03-03 14:00:00,46.8,35.3,29.58,South,191,5.0,10.0,64,0.00,,,0.00,VWS V14.01,2013-03-03 20:00:00,
2013-03-03 14:01:00,49.2,34.6,29.59,SW,217,5.0,7.0,57,0.00,,,0.00,VWS V14.01,2013-03-03 20:01:00,
2013-03-03 14:06:00,49.1,34.5,29.59,SSW,209,6.0,7.0,57,0.00,,,0.00,VWS V14.01,2013-03-03 20:06:00,
2013-03-03 14:11:00,48.6,34.9,29.59,SSW,209,5.0,7.0,59,0.00,,,0.00,VWS V14.01,2013-03-03 20:11:00,
2013-03-03 14:15:00,46.5,34.2,29.58,SSW,195,5.0,10.0,62,0.00,,,0.00,VWS V14.01,2013-03-03 20:15:00,
2013-03-03 14:16:00,48.3,35.1,29.61,SSW,209,2.0,7.0,60,0.00,,,0.00,VWS V14.01,2013-03-03 20:16:00,
2013-03-03 14:21:00,48.2,34.6,29.61,SSW,209,5.0,5.0,59,0.00,,,0.00,VWS V14.01,2013-03-03 20:21:00,
2013-03-03 14:26:00,47.9,33.4,29.61,SSW,210,6.0,10.0,57,0.00,,,0.00,VWS V14.01,2013-03-03 20:26:00,
2013-03-03 14:30:00,46.5,34.6,29.56,SSW,195,5.0,7.0,63,0.00,,,0.00,VWS V14.01,2013-03-03 20:30:00,
2013-03-03 14:31:00,47.3,34.1,29.60,SW,215,10.0,10.0,60,0.00,,,0.00,VWS V14.01,2013-03-03 20:31:00,
2013-03-03 14:36:00,47.0,34.3,29.60,SSW,213,6.0,10.0,61,0.00,,,0.00,VWS V14.01,2013-03-03 20:36:00,
2013-03-03 14:41:00,46.7,34.8,29.60,SSW,193,6.0,10.0,63,0.00,,,0.00,VWS V14.01,2013-03-03 20:41:00,
2013-03-03 14:45:00,46.2,35.5,29.54,SSW,192,4.0,6.0,66,0.00,,,0.00,VWS V14.01,2013-03-03 20:45:00,
2013-03-03 14:46:00,47.1,35.6,29.59,SSW,192,5.0,10.0,64,0.00,,,0.00,VWS V14.01,2013-03-03 20:46:00,
2013-03-03 14:51:00,47.6,34.8,29.59,South,189,7.0,10.0,61,0.00,,,0.00,VWS V14.01,2013-03-03 20:51:00,
2013-03-03 14:56:00,47.4,34.6,29.59,South,191,7.0,10.0,61,0.00,,,0.00,VWS V14.01,2013-03-03 20:56:00,
2013-03-03 15:00:00,46.1,34.2,29.55,South,186,5.0,10.0,63,0.00,,,0.00,VWS V14.01,2013-03-03 21:00:00,
2013-03-03 15:01:00,46.8,35.3,29.58,South,191,6.0,10.0,64,0.00,,,0.00,VWS V14.01,2013-03-03 21:01:00,
2013-03-03 15:06:00,46.7,33.2,29.58,SSW,195,7.0,10.0,59,0.00,,,0.00,VWS V14.01,2013-03-03 21:06:00,
2013-03-03 15:11:00,46.5,33.8,29.58,SSW,195,7.0,10.0,61,0.00,,,0.00,VWS V14.01,2013-03-03 21:11:00,
2013-03-03 15:15:00,46.1,35.4,29.56,SSW,205,11.0,11.0,66,0.00,,,0.00,VWS V14.01,2013-03-03 21:15:00,
2013-03-03 15:16:00,46.5,34.2,29.58,SSW,195,5.0,10.0,62,0.00,,,0.00,VWS V14.01,2013-03-03 21:16:00,
2013-03-03 15:21:00,46.7,34.0,29.58,SSW,195,2.0,6.0,61,0.00,,,0.00,VWS V14.01,2013-03-03 21:21:00,
2013-03-03 15:26:00,46.7,34.8,29.58,SSW,195,2.0,7.0,63,0.00,,,0.00,VWS V14.01,2013-03-03 21:26:00,
2013-03-03 15:30:00,46.7,36.0,29.56,SSW,192,9.0,13.0,66,0.00,,,0.00,VWS V14.01,2013-03-03 21:30:00,
2013-03-03 15:31:00,46.5,34.6,29.56,SSW,195,5.0,5.0,63,0.00,,,0.00,VWS V14.01,2013-03-03 21:31:00,
2013-03-03 15:36:00,46.4,35.3,29.56,SSW,193,5.0,6.0,65,0.00,,,0.00,VWS V14.01,2013-03-03 21:36:00,
2013-03-03 15:41:00,46.4,34.9,29.56,SSW,193,2.0,6.0,64,0.00,,,0.00,VWS V14.01,2013-03-03 21:41:00,
2013-03-03 15:45:00,45.4,36.6,29.56,SSW,200,6.0,13.0,71,0.00,,,0.00,VWS V14.01,2013-03-03 21:45:00,
2013-03-03 15:46:00,46.2,35.5,29.54,SSW,192,4.0,6.0,66,0.00,,,0.00,VWS V14.01,2013-03-03 21:46:00,
2013-03-03 15:51:00,46.1,34.2,29.54,South,191,5.0,6.0,63,0.00,,,0.00,VWS V14.01,2013-03-03 21:51:00,
2013-03-03 15:56:00,46.2,33.1,29.54,South,189,5.0,8.0,60,0.00,,,0.00,VWS V14.01,2013-03-03 21:56:00,
2013-03-03 16:00:00,45.7,37.2,29.55,SSW,202,7.0,10.0,72,0.00,,,0.00,VWS V14.01,2013-03-03 22:00:00,
2013-03-03 16:01:00,46.1,34.2,29.55,South,186,5.0,10.0,63,0.00,,,0.00,VWS V14.01,2013-03-03 22:01:00,
2013-03-03 16:06:00,46.1,33.8,29.55,South,188,7.0,10.0,62,0.00,,,0.00,VWS V14.01,2013-03-03 22:06:00,
2013-03-03 16:11:00,46.2,34.7,29.55,SSW,203,10.0,11.0,64,0.00,,,0.00,VWS V14.01,2013-03-03 22:11:00,
2013-03-03 16:15:00,45.7,36.5,29.56,SSW,198,5.0,11.0,70,0.00,,,0.00,VWS V14.01,2013-03-03 22:15:00,
2013-03-03 16:16:00,46.2,35.5,29.56,SSW,206,10.0,11.0,66,0.00,,,0.00,VWS V14.01,2013-03-03 22:16:00,
2013-03-03 16:21:00,46.7,34.8,29.56,SSW,208,8.0,11.0,63,0.00,,,0.00,VWS V14.01,2013-03-03 22:21:00,
2013-03-03 16:26:00,47.0,35.9,29.56,SSW,198,7.0,12.0,65,0.00,,,0.00,VWS V14.01,2013-03-03 22:26:00,
2013-03-03 16:30:00,44.2,37.1,29.56,South,188,2.0,10.0,76,0.00,,,0.00,VWS V14.01,2013-03-03 22:30:00,
2013-03-03 16:31:00,46.7,36.0,29.56,SSW,198,10.0,13.0,66,0.00,,,0.00,VWS V14.01,2013-03-03 22:31:00,
2013-03-03 16:36:00,46.2,35.9,29.56,SSW,198,7.0,13.0,67,0.00,,,0.00,VWS V14.01,2013-03-03 22:36:00,
2013-03-03 16:41:00,45.7,36.5,29.56,SSW,199,6.0,13.0,70,0.00,,,0.00,VWS V14.01,2013-03-03 22:41:00,
2013-03-03 16:45:00,43.8,36.1,29.56,South,189,4.0,7.0,74,0.00,,,0.00,VWS V14.01,2013-03-03 22:45:00,
2013-03-03 16:46:00,45.4,36.6,29.56,SSW,198,7.0,13.0,71,0.00,,,0.00,VWS V14.01,2013-03-03 22:46:00,
2013-03-03 16:51:00,45.5,36.7,29.56,SSW,199,4.0,10.0,71,0.00,,,0.00,VWS V14.01,2013-03-03 22:51:00,
2013-03-03 16:56:00,45.8,36.2,29.56,SSW,203,7.0,10.0,69,0.00,,,0.00,VWS V14.01,2013-03-03 22:56:00,
2013-03-03 17:00:00,43.2,35.8,29.56,South,191,5.0,7.0,75,0.00,,,0.00,VWS V14.01,2013-03-03 23:00:00,
2013-03-03 17:01:00,45.7,37.2,29.55,SSW,202,7.0,10.0,72,0.00,,,0.00,VWS V14.01,2013-03-03 23:01:00,
2013-03-03 17:06:00,45.7,36.1,29.55,SSW,198,8.0,11.0,69,0.00,,,0.00,VWS V14.01,2013-03-03 23:06:00,
2013-03-03 17:11:00,45.5,36.3,29.55,SSW,192,5.0,11.0,70,0.00,,,0.00,VWS V14.01,2013-03-03 23:11:00,
2013-03-03 17:15:00,43.1,35.4,29.55,South,189,3.0,5.0,74,0.00,,,0.00,VWS V14.01,2013-03-03 23:15:00,
2013-03-03 17:16:00,45.7,36.5,29.56,SSW,198,5.0,11.0,70,0.00,,,0.00,VWS V14.01,2013-03-03 23:16:00,
2013-03-03 17:21:00,45.5,36.7,29.56,SSW,193,6.0,10.0,71,0.00,,,0.00,VWS V14.01,2013-03-03 23:21:00,
2013-03-03 17:26:00,44.9,36.4,29.56,SSW,196,5.0,10.0,72,0.00,,,0.00,VWS V14.01,2013-03-03 23:26:00,
2013-03-03 17:30:00,43.5,34.7,29.56,South,178,0.0,6.0,71,0.00,,,0.00,VWS V14.01,2013-03-03 23:30:00,
2013-03-03 17:31:00,44.2,37.1,29.56,South,188,2.0,10.0,76,0.00,,,0.00,VWS V14.01,2013-03-03 23:31:00,
2013-03-03 17:36:00,43.9,36.2,29.56,South,184,2.0,6.0,74,0.00,,,0.00,VWS V14.01,2013-03-03 23:36:00,
2013-03-03 17:41:00,43.9,36.2,29.56,South,186,4.0,6.0,74,0.00,,,0.00,VWS V14.01,2013-03-03 23:41:00,
2013-03-03 17:45:00,43.2,34.8,29.56,South,189,2.0,5.0,72,0.00,,,0.00,VWS V14.01,2013-03-03 23:45:00,
2013-03-03 17:46:00,43.8,36.1,29.56,South,189,4.0,7.0,74,0.00,,,0.00,VWS V14.01,2013-03-03 23:46:00,
2013-03-03 17:51:00,43.5,35.4,29.56,SSW,192,4.0,7.0,73,0.00,,,0.00,VWS V14.01,2013-03-03 23:51:00,
2013-03-03 17:56:00,43.3,35.6,29.56,SSW,193,4.0,7.0,74,0.00,,,0.00,VWS V14.01,2013-03-03 23:56:00,
2013-03-03 18:00:00,41.9,35.2,29.56,SSW,198,0.0,5.0,77,0.00,,,0.00,VWS V14.01,2013-03-04 00:00:00,
2013-03-03 18:01:00,43.2,35.8,29.56,South,191,5.0,7.0,75,0.00,,,0.00,VWS V14.01,2013-03-04 00:01:00,
2013-03-03 18:06:00,43.1,35.7,29.56,SSW,192,3.0,5.0,75,0.00,,,0.00,VWS V14.01,2013-03-04 00:06:00,
2013-03-03 18:11:00,43.1,35.7,29.56,South,186,1.0,5.0,75,0.00,,,0.00,VWS V14.01,2013-03-04 00:11:00,
2013-03-03 18:15:00,41.1,35.7,29.56,South,175,0.0,3.0,81,0.00,,,0.00,VWS V14.01,2013-03-04 00:15:00,
2013-03-03 18:16:00,43.1,35.4,29.55,South,189,2.0,3.0,74,0.00,,,0.00,VWS V14.01,2013-03-04 00:16:00,
2013-03-03 18:21:00,43.6,34.8,29.55,South,188,1.0,5.0,71,0.00,,,0.00,VWS V14.01,2013-03-04 00:21:00,
2013-03-03 18:26:00,43.8,35.0,29.55,South,188,2.0,5.0,71,0.00,,,0.00,VWS V14.01,2013-03-04 00:26:00,
2013-03-03 18:30:00,40.6,35.8,29.55,South,176,2.0,5.0,83,0.00,,,0.00,VWS V14.01,2013-03-04 00:30:00,
2013-03-03 18:31:00,43.5,34.7,29.56,South,178,0.0,0.0,71,0.00,,,0.00,VWS V14.01,2013-03-04 00:31:00,
2013-03-03 18:36:00,43.1,34.7,29.56,South,178,0.0,2.0,72,0.00,,,0.00,VWS V14.01,2013-03-04 00:36:00,
2013-03-03 18:41:00,43.2,35.1,29.56,South,188,5.0,5.0,73,0.00,,,0.00,VWS V14.01,2013-03-04 00:41:00,
2013-03-03 18:45:00,39.6,35.8,29.56,SSE,168,1.0,7.0,86,0.00,,,0.00,VWS V14.01,2013-03-04 00:45:00,
2013-03-03 18:46:00,43.2,34.8,29.56,South,189,2.0,2.0,72,0.00,,,0.00,VWS V14.01,2013-03-04 00:46:00,
2013-03-03 18:51:00,42.6,35.2,29.56,SSW,198,0.0,5.0,75,0.00,,,0.00,VWS V14.01,2013-03-04 00:51:00,
2013-03-03 18:56:00,42.2,34.9,29.56,SSW,198,0.0,5.0,75,0.00,,,0.00,VWS V14.01,2013-03-04 00:56:00,
2013-03-03 19:00:00,38.9,36.8,29.56,South,191,5.0,5.0,92,0.00,,,0.00,VWS V14.01,2013-03-04 01:00:00,
2013-03-03 19:01:00,41.9,35.2,29.56,SSW,198,0.0,0.0,77,0.00,,,0.00,VWS V14.01,2013-03-04 01:01:00,
2013-03-03 19:06:00,41.6,35.6,29.56,SSW,193,0.0,2.0,79,0.00,,,0.00,VWS V14.01,2013-03-04 01:06:00,
2013-03-03 19:11:00,41.2,35.8,29.56,South,175,0.0,3.0,81,0.00,,,0.00,VWS V14.01,2013-03-04 01:11:00,
2013-03-03 19:15:00,38.6,37.6,29.55,South,188,2.0,6.0,96,0.00,,,0.00,VWS V14.01,2013-03-04 01:15:00,
2013-03-03 19:16:00,41.1,35.7,29.56,South,175,1.0,1.0,81,0.00,,,0.00,VWS V14.01,2013-03-04 01:16:00,
2013-03-03 19:21:00,40.9,35.8,29.56,South,184,2.0,5.0,82,0.00,,,0.00,VWS V14.01,2013-03-04 01:21:00,
2013-03-03 19:26:00,40.9,36.1,29.56,South,176,1.0,5.0,83,0.00,,,0.00,VWS V14.01,2013-03-04 01:26:00,
2013-03-03 19:30:00,38.3,38.3,29.56,South,188,7.0,7.0,100,0.00,,,0.00,VWS V14.01,2013-03-04 01:30:00,
2013-03-03 19:31:00,40.6,35.8,29.55,South,176,2.0,5.0,83,0.00,,,0.00,VWS V14.01,2013-03-04 01:31:00,
2013-03-03 19:36:00,40.5,36.3,29.55,South,189,5.0,7.0,85,0.00,,,0.00,VWS V14.01,2013-03-04 01:36:00,
2013-03-03 19:41:00,40.2,36.3,29.55,SSE,168,1.0,7.0,86,0.00,,,0.00,VWS V14.01,2013-03-04 01:41:00,
2013-03-03 19:45:00,38.0,38.0,29.55,South,184,2.0,8.0,100,0.00,,,0.00,VWS V14.01,2013-03-04 01:45:00,
2013-03-03 19:46:00,39.6,35.8,29.56,SSE,168,2.0,2.0,86,0.00,,,0.00,VWS V14.01,2013-03-04 01:46:00,
2013-03-03 19:51:00,39.3,36.3,29.56,SSE,167,5.0,5.0,89,0.00,,,0.00,VWS V14.01,2013-03-04 01:51:00,
2013-03-03 19:56:00,39.1,36.4,29.56,South,178,2.0,5.0,90,0.00,,,0.00,VWS V14.01,2013-03-04 01:56:00,
2013-03-03 20:00:00,37.2,37.2,29.56,South,186,2.0,5.0,100,0.00,,,0.00,VWS V14.01,2013-03-04 02:00:00,
2013-03-03 20:01:00,38.9,36.8,29.56,SSW,193,5.0,5.0,92,0.00,,,0.00,VWS V14.01,2013-03-04 02:01:00,
2013-03-03 20:06:00,38.6,37.0,29.56,South,179,3.0,5.0,94,0.00,,,0.00,VWS V14.01,2013-03-04 02:06:00,
2013-03-03 20:11:00,38.6,37.0,29.56,SSW,198,5.0,5.0,94,0.00,,,0.00,VWS V14.01,2013-03-04 02:11:00,
2013-03-03 20:15:00,37.5,37.5,29.55,SSW,199,5.0,7.0,100,0.00,,,0.00,VWS V14.01,2013-03-04 02:15:00,
2013-03-03 20:16:00,38.6,37.6,29.55,South,188,2.0,2.0,96,0.00,,,0.00,VWS V14.01,2013-03-04 02:16:00,
2013-03-03 20:21:00,38.5,37.7,29.55,SSW,198,5.0,7.0,97,0.00,,,0.00,VWS V14.01,2013-03-04 02:21:00,
2013-03-03 20:26:00,38.3,38.3,29.55,South,186,5.0,7.0,100,0.00,,,0.00,VWS V14.01,2013-03-04 02:26:00,
2013-03-03 20:30:00,38.0,38.0,29.54,SSW,203,5.0,9.0,100,0.00,,,0.00,VWS V14.01,2013-03-04 02:30:00,
2013-03-03 20:31:00,38.3,38.3,29.56,SSW,193,7.0,7.0,100,0.00,,,0.00,VWS V14.01,2013-03-04 02:31:00,
2013-03-03 20:36:00,38.3,38.3,29.56,SSW,195,7.0,7.0,100,0.00,,,0.00,VWS V14.01,2013-03-04 02:36:00,
2013-03-03 20:41:00,38.2,38.2,29.56,South,188,4.0,8.0,100,0.00,,,0.00,VWS V14.01,2013-03-04 02:41:00,
2013-03-03 20:45:00,37.0,37.0,29.53,SSW,199,3.0,8.0,100,0.00,,,0.00,VWS V14.01,2013-03-04 02:45:00,
2013-03-03 20:46:00,38.0,38.0,29.55,South,184,2.0,2.0,100,0.00,,,0.00,VWS V14.01,2013-03-04 02:46:00,
2013-03-03 20:51:00,37.8,37.8,29.55,South,184,0.0,2.0,100,0.00,,,0.00,VWS V14.01,2013-03-04 02:51:00,
2013-03-03 20:56:00,37.3,37.3,29.55,South,184,0.0,2.0,100,0.00,,,0.00,VWS V14.01,2013-03-04 02:56:00,
2013-03-03 21:00:00,36.9,36.9,29.53,SSW,202,5.0,5.0,100,0.00,,,0.00,VWS V14.01,2013-03-04 03:00:00,
2013-03-03 21:01:00,37.0,37.0,29.56,South,186,1.0,2.0,100,0.00,,,0.00,VWS V14.01,2013-03-04 03:01:00,
2013-03-03 21:06:00,36.9,36.9,29.56,SSW,200,3.0,5.0,100,0.00,,,0.00,VWS V14.01,2013-03-04 03:06:00,
2013-03-03 21:11:00,36.9,36.9,29.56,SSW,208,4.0,6.0,100,0.00,,,0.00,VWS V14.01,2013-03-04 03:11:00,
2013-03-03 21:15:00,37.3,37.3,29.52,SW,215,6.0,11.0,100,0.00,,,0.00,VWS V14.01,2013-03-04 03:15:00,
2013-03-03 21:16:00,37.5,37.5,29.55,SSW,206,5.0,5.0,100,0.00,,,0.00,VWS V14.01,2013-03-04 03:16:00,
2013-03-03 21:21:00,37.6,37.6,29.55,SSW,212,5.0,6.0,100,0.00,,,0.00,VWS V14.01,2013-03-04 03:21:00,
2013-03-03 21:26:00,37.9,37.9,29.55,SSW,203,5.0,7.0,100,0.00,,,0.00,VWS V14.01,2013-03-04 03:26:00,
2013-03-03 21:30:00,37.0,37.0,29.52,SW,216,5.0,10.0,100,0.00,,,0.00,VWS V14.01,2013-03-04 03:30:00,
2013-03-03 21:31:00,38.0,38.0,29.54,SSW,209,6.0,6.0,100,0.00,,,0.00,VWS V14.01,2013-03-04 03:31:00,
2013-03-03 21:36:00,37.8,37.8,29.54,SSW,206,7.0,7.0,100,0.00,,,0.00,VWS V14.01,2013-03-04 03:36:00,
2013-03-03 21:41:00,37.5,37.5,29.54,SSW,196,2.0,8.0,100,0.00,,,0.00,VWS V14.01,2013-03-04 03:41:00,
2013-03-03 21:45:00,37.2,37.2,29.51,SW,217,7.0,10.0,100,0.00,,,0.00,VWS V14.01,2013-03-04 03:45:00,
2013-03-03 21:46:00,37.0,37.0,29.53,SSW,203,4.0,4.0,100,0.00,,,0.00,VWS V14.01,2013-03-04 03:46:00,
2013-03-03 21:51:00,36.9,36.9,29.53,SSW,192,2.0,5.0,100,0.00,,,0.00,VWS V14.01,2013-03-04 03:51:00,
2013-03-03 21:56:00,36.8,36.8,29.53,SSW,193,3.0,5.0,100,0.00,,,0.00,VWS V14.01,2013-03-04 03:56:00,
2013-03-03 22:00:00,37.0,37.0,29.52,SW,222,6.0,10.0,100,0.00,,,0.00,VWS V14.01,2013-03-04 04:00:00,
2013-03-03 22:01:00,36.9,36.9,29.53,SSW,202,5.0,5.0,100,0.00,,,0.00,VWS V14.01,2013-03-04 04:01:00,
2013-03-03 22:06:00,37.0,37.0,29.53,SW,233,0.0,5.0,100,0.00,,,0.00,VWS V14.01,2013-03-04 04:06:00,
2013-03-03 22:11:00,37.0,37.0,29.53,SW,236,5.0,5.0,100,0.00,,,0.00,VWS V14.01,2013-03-04 04:11:00,
2013-03-03 22:15:00,36.8,36.8,29.51,SW,222,7.0,8.0,100,0.00,,,0.00,VWS V14.01,2013-03-04 04:15:00,
2013-03-03 22:16:00,37.3,37.3,29.52,SW,220,8.0,8.0,100,0.00,,,0.00,VWS V14.01,2013-03-04 04:16:00,
2013-03-03 22:21:00,37.5,37.5,29.52,SW,217,6.0,10.0,100,0.00,,,0.00,VWS V14.01,2013-03-04 04:21:00,
2013-03-03 22:26:00,37.2,37.2,29.52,SW,220,5.0,10.0,100,0.00,,,0.00,VWS V14.01,2013-03-04 04:26:00,
2013-03-03 22:30:00,35.9,35.9,29.51,SW,236,5.0,10.0,100,0.00,,,0.00,VWS V14.01,2013-03-04 04:30:00,
2013-03-03 22:31:00,37.0,37.0,29.52,SW,217,5.0,6.0,100,0.00,,,0.00,VWS V14.01,2013-03-04 04:31:00,
2013-03-03 22:36:00,37.0,37.0,29.52,SSW,210,5.0,7.0,100,0.00,,,0.00,VWS V14.01,2013-03-04 04:36:00,
2013-03-03 22:41:00,37.0,37.0,29.52,SW,216,5.0,10.0,100,0.00,,,0.00,VWS V14.01,2013-03-04 04:41:00,
2013-03-03 22:45:00,35.3,35.3,29.52,SW,227,5.0,7.0,100,0.00,,,0.00,VWS V14.01,2013-03-04 04:45:00,
2013-03-03 22:46:00,37.2,37.2,29.51,SSW,213,6.0,7.0,100,0.00,,,0.00,VWS V14.01,2013-03-04 04:46:00,
2013-03-03 22:51:00,37.2,37.2,29.51,SW,227,6.0,7.0,100,0.00,,,0.00,VWS V14.01,2013-03-04 04:51:00,
2013-03-03 22:56:00,37.2,37.2,29.51,SW,217,7.0,8.0,100,0.00,,,0.00,VWS V14.01,2013-03-04 04:56:00,
2013-03-03 23:00:00,37.2,37.2,29.51,SW,222,6.0,10.0,100,0.00,,,0.00,VWS V14.01,2013-03-04 05:00:00,
2013-03-03 23:05:00,37.0,37.0,29.52,SW,216,6.0,7.0,100,0.00,,,0.00,VWS V14.01,2013-03-04 05:05:00,
2013-03-03 23:10:00,36.9,36.9,29.52,SW,215,7.0,8.0,100,0.00,,,0.00,VWS V14.01,2013-03-04 05:10:00,
2013-03-03 23:15:00,36.8,36.8,29.51,SW,220,7.0,8.0,100,0.00,,,0.00,VWS V14.01,2013-03-04 05:15:00,
2013-03-03 23:20:00,36.3,36.3,29.51,SW,226,6.0,9.0,100,0.00,,,0.00,VWS V14.01,2013-03-04 05:20:00,
2013-03-03 23:25:00,35.9,35.9,29.51,WSW,239,5.0,9.0,100,0.00,,,0.00,VWS V14.01,2013-03-04 05:25:00,
2013-03-03 23:30:00,35.9,35.9,29.51,SW,233,8.0,10.0,100,0.00,,,0.00,VWS V14.01,2013-03-04 05:30:00,
2013-03-03 23:35:00,35.6,35.6,29.51,SW,234,7.0,7.0,100,0.00,,,0.00,VWS V14.01,2013-03-04 05:35:00,
2013-03-03 23:40:00,35.6,35.6,29.51,SW,233,5.0,7.0,100,0.00,,,0.00,VWS V14.01,2013-03-04 05:40:00,
2013-03-03 23:45:00,35.3,35.3,29.51,SW,230,6.0,7.0,100,0.00,,,0.00,VWS V14.01,2013-03-04 05:45:00,
2013-03-03 23:50:00,35.3,35.3,29.52,SW,233,7.0,10.0,100,0.00,,,0.00,VWS V14.01,2013-03-04 05:50:00,
2013-03-03 23:55:00,35.3,35.3,29.52,WSW,240,6.0,10.0,100,0.00,,,0.00,VWS V14.01,2013-03-04 05:55:00,